Change the Weather History Date:

Monday, March 4, 2013

  Actual Average (KCAK) Record (KCAK)
Temperature  
Mean Temperature 26 °F 33 °F  
Max Temperature 33 °F 42 °F 74 °F (1983)
Min Temperature 19 °F 25 °F -1 °F (1943)
Degree Days  
Heating Degree Days 39 32  
Month to date heating degree days 129  
Since 1 July heating degree days 4673  
Cooling Degree Days 0 0  
Month to date cooling degree days 0  
Year to date cooling degree days 0  
Moisture  
Dew Point 17 °F    
Average Humidity 70    
Maximum Humidity 91    
Minimum Humidity 51    
Precipitation  
Precipitation 0.00 in 0.08 in 2.44 in (1964)
Month to date precipitation 0.34  
Year to date precipitation 5.26  
Snow  
Snow 0.00 in 0.40 in - ()
Month to date snowfall 1.4  
Since 1 July snowfall 37.9  
Snow Depth -    
Sea Level Pressure  
Sea Level Pressure 30.05 in    
Wind  
Wind Speed 6 mph (WNW)    
Max Wind Speed 14 mph    
Max Gust Speed 17 mph    
Visibility 10 miles    
Events Snow    
T = Trace of Precipitation, MM = Missing Value Source: NWS Daily Summary

Daily Weather History Graph

Daily Weather History Graph

Search for Another Location

Airport or City:

Trip Planner

Search our weather history database for the weather conditions in past years. The results will help you decide how hot, cold, wet, or windy it might be!

Date:

Astronomy

Mar. 04, 2013 Rise Set
Actual Time 6:54 AM EST 6:19 PM EST
Civil Twilight 6:26 AM EST 6:47 PM EST
Nautical Twilight 5:54 AM EST 7:19 PM EST
Astronomical Twilight 5:22 AM EST 7:51 PM EST
Moon 1:04 AM EST (3/4) 10:57 AM EST (3/4)
Length of Visible Light 12h 20m
Length of Day
11h 25m
Waning Gibbous, 52% of the Moon is Illuminated
Mar 4
Waning Gibbous
Mar 4
Last Quarter
Mar 11
New
Mar 19
First Quarter
Mar 27
Full

Hourly Weather History & Observations

Time (EST) Temp. Windchill Dew Point Humidity Pressure Visibility Wind Dir Wind Speed Gust Speed Precip Events Conditions
12:16 AM 20.8 °F 13.2 °F 16.0 °F 81% 29.99 in 7.0 mi WNW 5.8 mph - N/A Snow Light Snow
12:35 AM 20.8 °F 14.4 °F 15.8 °F 81% 29.99 in 10.0 mi WNW 4.6 mph - N/A Snow Light Snow
12:56 AM 21.6 °F 13.0 °F 15.6 °F 78% 30.00 in 7.0 mi NW 6.9 mph - N/A Snow Light Snow
1:16 AM 21.9 °F 10.4 °F 14.4 °F 73% 30.00 in 10.0 mi NNW 11.5 mph 16.1 mph N/A Snow Light Snow
1:35 AM 21.9 °F 12.5 °F 14.4 °F 73% 30.00 in 10.0 mi NNW 8.1 mph - N/A   Overcast
1:56 AM 21.9 °F 15.7 °F 14.5 °F 73% 30.01 in 10.0 mi NNW 4.6 mph - N/A   Overcast
2:16 AM 21.9 °F 15.7 °F 14.5 °F 73% 30.01 in 10.0 mi NW 4.6 mph - N/A   Overcast
2:35 AM 21.2 °F 13.6 °F 15.3 °F 78% 30.01 in 10.0 mi WSW 5.8 mph - N/A   Overcast
2:56 AM 21.0 °F 14.6 °F 16.2 °F 81% 30.02 in 10.0 mi WSW 4.6 mph - N/A Snow Light Snow
3:16 AM 21.0 °F 14.6 °F 16.5 °F 83% 30.02 in 10.0 mi WSW 4.6 mph - N/A   Overcast
3:56 AM 21.0 °F 14.6 °F 16.3 °F 82% 30.02 in 10.0 mi WSW 4.6 mph - N/A   Overcast
4:16 AM 20.8 °F 14.4 °F 15.8 °F 81% 30.01 in 10.0 mi WSW 4.6 mph - N/A   Overcast
4:35 AM 20.3 °F 13.8 °F 15.6 °F 82% 30.02 in 10.0 mi WSW 4.6 mph - N/A   Overcast
4:56 AM 19.9 °F 14.9 °F 15.4 °F 83% 30.03 in 10.0 mi WSW 3.5 mph - N/A   Overcast
5:16 AM 19.2 °F 12.5 °F 15.4 °F 85% 30.02 in 10.0 mi WSW 4.6 mph - N/A   Overcast
5:35 AM 19.9 °F 13.4 °F 16.7 °F 87% 30.03 in 10.0 mi SW 4.6 mph - N/A   Overcast
5:56 AM 19.9 °F 13.4 °F 17.1 °F 89% 30.04 in 10.0 mi WSW 4.6 mph - N/A   Overcast
6:16 AM 20.1 °F 13.6 °F 17.6 °F 90% 30.04 in 10.0 mi WSW 4.6 mph - N/A   Overcast
6:35 AM 20.5 °F 11.7 °F 18.1 °F 91% 30.05 in 10.0 mi West 6.9 mph - N/A   Overcast
6:56 AM 20.8 °F 13.2 °F 18.0 °F 89% 30.06 in 10.0 mi West 5.8 mph - N/A   Overcast
7:16 AM 21.2 °F 14.9 °F 18.1 °F 88% 30.07 in 10.0 mi WSW 4.6 mph - N/A   Overcast
7:35 AM 21.6 °F 14.0 °F 17.8 °F 85% 30.07 in 10.0 mi WSW 5.8 mph - N/A   Overcast
7:56 AM 21.0 °F 14.6 °F 16.3 °F 82% 30.07 in 10.0 mi West 4.6 mph - N/A   Mostly Cloudy
8:16 AM 21.7 °F 12.3 °F 16.5 °F 80% 30.08 in 10.0 mi West 8.1 mph - N/A   Clear
8:35 AM 22.5 °F 14.1 °F 16.3 °F 77% 30.08 in 10.0 mi West 6.9 mph - N/A   Clear
8:56 AM 23.0 °F 13.1 °F 16.5 °F 76% 30.08 in 10.0 mi West 9.2 mph - N/A   Clear
9:16 AM 23.9 °F 15.8 °F 17.6 °F 77% 30.08 in 10.0 mi WNW 6.9 mph - N/A   Clear
9:36 AM 24.8 °F 16.9 °F 18.0 °F 75% 30.08 in 10.0 mi West 6.9 mph - N/A   Clear
9:55 AM 25.7 °F 16.4 °F 17.8 °F 72% 30.09 in 10.0 mi West 9.2 mph - N/A   Scattered Clouds
10:16 AM 26.6 °F 18.2 °F 18.0 °F 70% 30.09 in 10.0 mi West 8.1 mph - N/A   Mostly Cloudy
10:35 AM 27.1 °F 18.2 °F 16.9 °F 65% 30.09 in 10.0 mi WNW 9.2 mph - N/A   Mostly Cloudy
10:56 AM 26.8 °F 17.1 °F 16.3 °F 65% 30.09 in 10.0 mi WNW 10.4 mph 16.1 mph N/A   Scattered Clouds
11:16 AM 28.8 °F 18.4 °F 16.7 °F 61% 30.08 in 10.0 mi West 12.7 mph - N/A   Scattered Clouds
11:35 AM 29.5 °F 21.1 °F 17.4 °F 61% 30.08 in 10.0 mi West 9.2 mph - N/A   Mostly Cloudy
11:56 AM 30.0 °F 21.1 °F 17.2 °F 59% 30.08 in 10.0 mi West 10.4 mph - N/A   Scattered Clouds
12:16 PM 30.0 °F 19.5 °F 16.0 °F 56% 30.08 in 10.0 mi West 13.8 mph 17.3 mph N/A   Scattered Clouds
12:35 PM 30.7 °F 23.3 °F 16.7 °F 56% 30.07 in 10.0 mi WNW 8.1 mph - N/A   Clear
12:56 PM 31.3 °F 24.7 °F 18.0 °F 58% 30.07 in 10.0 mi WNW 6.9 mph - N/A   Clear
1:16 PM 31.5 °F 22.9 °F 17.1 °F 55% 30.07 in 10.0 mi WSW 10.4 mph - N/A   Scattered Clouds
1:56 PM 32.2 °F 24.4 °F 19.4 °F 59% 30.05 in 10.0 mi WNW 9.2 mph - N/A   Clear
2:16 PM 32.9 °F 26.7 °F 19.8 °F 59% 30.05 in 10.0 mi NW 6.9 mph - N/A   Scattered Clouds
2:35 PM 32.9 °F 25.9 °F 17.6 °F 53% 30.05 in 10.0 mi West 8.1 mph - N/A   Scattered Clouds
2:56 PM 32.9 °F 26.7 °F 17.2 °F 53% 30.05 in 10.0 mi WNW 6.9 mph - N/A   Clear
3:16 PM 33.3 °F 27.1 °F 17.4 °F 52% 30.05 in 10.0 mi WNW 6.9 mph - N/A   Clear
3:36 PM 33.4 °F 28.1 °F 18.0 °F 53% 30.05 in 10.0 mi WNW 5.8 mph - N/A   Clear
3:56 PM 33.6 °F 29.4 °F 17.2 °F 51% 30.04 in 10.0 mi West 4.6 mph - N/A   Clear
4:16 PM 33.6 °F - 17.2 °F 51% 30.05 in 10.0 mi Calm Calm - N/A   Clear
4:35 PM 32.9 °F 27.5 °F 16.9 °F 52% 30.04 in 10.0 mi West 5.8 mph - N/A   Clear
4:56 PM 32.9 °F 27.5 °F 19.8 °F 59% 30.05 in 10.0 mi WNW 5.8 mph - N/A   Clear
5:16 PM 32.4 °F 27.9 °F 18.3 °F 56% 30.05 in 10.0 mi WNW 4.6 mph - N/A   Clear
5:35 PM 32.4 °F 26.0 °F 18.9 °F 58% 30.05 in 10.0 mi NW 6.9 mph - N/A   Clear
5:56 PM 31.5 °F 25.8 °F 18.9 °F 60% 30.05 in 10.0 mi NW 5.8 mph - N/A   Clear
6:16 PM 30.2 °F 26.7 °F 19.0 °F 63% 30.05 in 10.0 mi NNW 3.5 mph - N/A   Clear
6:35 PM 29.1 °F 25.4 °F 19.2 °F 67% 30.05 in 10.0 mi NNW 3.5 mph - N/A   Clear
6:56 PM 28.4 °F 23.3 °F 19.2 °F 69% 30.06 in 10.0 mi NW 4.6 mph - N/A   Clear
7:16 PM 28.4 °F - 19.0 °F 68% 30.06 in 10.0 mi Calm Calm - N/A   Clear
7:35 PM 27.7 °F - 19.0 °F 70% 30.06 in 10.0 mi Calm Calm - N/A   Clear
7:56 PM 27.3 °F 23.4 °F 18.1 °F 68% 30.06 in 10.0 mi NNW 3.5 mph - N/A   Clear
8:16 PM 26.4 °F 22.4 °F 16.7 °F 67% 30.06 in 10.0 mi North 3.5 mph - N/A   Clear
8:36 PM 26.2 °F 22.1 °F 14.9 °F 62% 30.06 in 10.0 mi NNW 3.5 mph - N/A   Clear
8:56 PM 25.7 °F 20.1 °F 14.7 °F 63% 30.06 in 10.0 mi NNW 4.6 mph - N/A   Clear
9:35 PM 25.3 °F - 15.3 °F 66% 30.06 in 10.0 mi Calm Calm - N/A   Clear
9:56 PM 25.2 °F - 14.9 °F 65% 30.06 in 10.0 mi Calm Calm - N/A   Clear
10:16 PM 25.0 °F - 14.7 °F 65% 30.06 in 10.0 mi Calm Calm - N/A   Clear
10:35 PM 24.8 °F - 14.0 °F 64% 30.06 in 10.0 mi Calm Calm - N/A   Clear
10:56 PM 23.9 °F - 14.9 °F 69% 30.06 in 10.0 mi Calm Calm - N/A   Clear
11:16 PM 23.9 °F - 15.6 °F 71% 30.06 in 10.0 mi Calm Calm - N/A   Clear
11:35 PM 23.4 °F - 15.8 °F 73% 30.06 in 10.0 mi Calm Calm - N/A   Clear
11:56 PM 22.5 °F - 16.0 °F 76% 30.07 in 10.0 mi Calm Calm - N/A   Clear